Find Starlink 30954

NORAD ID: 58407 Int'l Des: 2023-180 Owner: SPXS Country: US Constellation: starlink operational
LEOCIRCULAR

リアルタイム位置

3D地球を読み込み中...

Starlink 30954について

説明を読み込み中...

次回通過

Passes for default location (London). Set your location on the main map for personalized predictions.

高度履歴

Loading altitude history...

軌道要素

1 58407U 23180F 26130.19449088 -.00004187 00000-0 -14270-3 0 9992
2 58407 43.0048 65.0907 0000689 263.9058 96.1715 15.27582093137033
Epoch: May 10, 2026 • Age: 6 hours

現在のステータス

高度 483.4 km
速度 7.63 km/s
衛星直下点 -4.50°S, 132.44°W
打ち上げ日 Nov 22, 2023
運用期間 2.4 years
タイプ internet

技術仕様

分類 Payload
質量 730.00 kg
乾燥質量 700.00 kg
総質量 730.00 kg
長さ 0.30 m
直径 4.10 m
スパン 29.00 m
形状 Box + pan
製造者 SPXS
バスタイプ Starlink V2M
フェーズステータス In Orbit
所有者/国 SPXS/US

Most Searched